Wind_Speed
36 35 33 32 31 30 26 25 27 27 26 23 23 25 26 25 21 18 19 20 18 17 18 19 19 19 19 19 19 19 20 21 21 22 22 22 22 22 22 22 22 21 21 21 21 21 21 21 21
37 36 36 35 33 30 26 28 31 31 27 24 24 26 27 25 22 19 20 20 19 18 18 19 19 20 20 21 21 21 22 22 22 23 23 24 24 24 24 24 24 23 23 22 22 22 22 22 22
39 38 38 37 34 28 27 32 34 33 29 28 28 30 31 27 23 21 21 20 19 19 19 19 20 20 21 22 22 23 23 23 23 24 24 25 25 25 25 25 25 25 24 24 24 24 23 24 24
41 40 40 38 33 27 30 34 36 34 32 30 31 33 33 29 25 23 22 22 21 21 21 20 21 21 22 22 23 23 24 24 24 24 25 25 26 26 26 27 27 26 26 26 25 25 25 24 24
43 43 42 38 31 28 32 36 36 34 32 31 32 34 34 30 28 26 25 24 24 23 23 22 22 22 22 22 23 23 23 24 25 25 25 26 26 27 27 27 27 27 27 27 26 26 25 25 25
45 44 42 37 30 30 32 35 36 34 32 30 31 34 35 32 29 28 27 27 27 26 25 24 24 24 24 24 24 24 24 24 24 25 25 25 25 26 26 27 27 27 27 27 27 27 26 26 25
45 44 42 36 32 32 32 35 37 34 32 30 31 34 33 30 28 28 28 28 28 28 26 26 26 26 26 25 25 24 24 24 24 24 25 24 24 24 25 26 26 26 26 26 27 27 26 26 25
46 45 42 37 33 31 32 36 37 35 32 31 32 32 30 27 26 26 26 26 27 26 27 27 27 27 26 26 26 25 25 25 25 25 24 24 24 24 24 24 25 25 25 26 26 26 26 26 25
46 46 42 36 33 32 34 37 37 36 33 33 31 30 29 27 26 25 24 24 24 25 26 27 27 27 27 27 27 27 26 26 26 26 25 25 24 23 23 23 24 24 25 25 25 26 26 26 25
47 46 40 35 34 34 36 38 38 37 35 33 30 29 28 27 26 24 24 24 24 25 26 26 27 27 27 27 27 27 27 27 27 26 26 25 25 24 23 23 23 24 25 25 26 26 27 27 27
46 45 40 36 36 37 38 39 40 39 37 33 30 29 29 28 25 24 24 24 24 25 25 25 25 26 26 27 27 27 27 28 27 27 27 26 26 26 24 24 24 24 24 25 26 26 27 28 28
46 45 41 39 39 40 40 41 41 40 37 32 29 30 30 28 25 24 24 24 24 25 25 25 25 25 26 26 27 27 27 28 28 28 27 27 27 27 26 25 25 24 25 25 26 27 28 28 29
47 46 44 42 42 42 41 40 40 39 36 32 31 32 32 29 27 25 25 25 25 25 25 25 25 26 26 26 27 27 28 28 28 28 28 28 28 28 27 27 26 26 26 26 27 27 28 28 29
49 48 46 44 43 43 41 39 39 38 37 35 34 34 33 31 28 27 26 26 27 26 26 25 25 26 27 27 28 28 29 29 29 29 29 29 29 29 28 28 28 28 28 28 28 28 29 29 30
50 49 48 46 44 44 43 41 39 38 40 39 36 34 34 31 29 27 27 28 28 27 27 26 26 27 27 28 29 29 30 30 30 30 30 30 30 30 29 29 30 30 29 29 29 29 30 31 31
50 49 48 45 45 45 44 41 40 41 42 40 37 35 34 31 29 28 28 28 29 29 29 28 27 27 28 29 30 31 31 31 31 32 32 31 31 31 31 31 31 31 31 31 31 31 31 32 32
50 49 47 45 45 45 45 42 40 42 42 40 38 36 34 32 31 29 30 30 31 31 31 30 30 29 29 30 31 32 32 32 33 33 33 33 33 32 32 33 32 32 32 32 32 32 32 33 33
46 46 46 45 45 44 44 42 39 41 41 39 38 36 35 34 32 32 33 33 33 33 33 33 33 32 32 33 34 34 34 34 34 34 35 35 34 34 34 34 34 33 33 33 33 33 34 34 35
43 44 44 43 43 43 43 41 38 39 40 39 38 37 37 35 35 36 36 35 36 36 36 36 35 35 35 35 36 36 36 37 37 37 37 37 36 36 36 35 35 34 34 34 35 35 35 36 36
40 41 40 41 42 42 42 41 38 38 40 39 39 38 37 37 37 37 38 38 38 38 39 39 39 39 39 39 39 40 40 40 41 40 39 39 38 38 38 37 36 35 35 35 35 36 36 36 36
36 37 37 38 39 40 40 39 37 36 38 38 38 38 38 38 39 40 40 41 41 41 42 43 43 43 43 43 43 43 44 43 42 42 41 41 41 41 41 39 37 37 36 36 36 36 36 36 36
32 32 32 33 35 36 38 37 32 34 35 35 36 37 38 39 40 41 42 43 44 45 46 46 47 47 47 48 47 47 46 45 45 44 44 45 44 44 43 41 39 38 37 37 37 37 37 37 37
28 27 28 29 31 32 33 35 29 30 31 33 34 36 38 39 41 42 43 45 47 48 49 50 51 52 52 52 51 51 50 49 48 48 48 47 47 46 44 43 41 40 39 38 38 37 38 38 38
25 24 24 25 27 28 27 31 28 27 29 32 34 36 38 40 42 45 47 49 50 52 53 54 55 55 56 56 56 55 54 52 51 50 50 49 49 48 46 45 44 43 41 40 39 38 38 39 40
23 23 23 23 24 24 24 26 27 27 29 32 34 37 40 43 45 47 49 51 52 54 55 56 57 57 57 58 58 58 56 55 53 52 51 51 50 49 48 47 46 45 43 41 40 39 39 40 41
22 22 22 21 21 21 22 24 26 27 29 32 35 38 40 43 46 48 49 51 53 54 56 57 57 58 58 58 58 58 58 56 54 54 53 52 51 50 49 48 47 46 44 42 41 40 41 42 43
22 21 20 20 20 21 22 23 25 27 29 32 34 37 40 42 44 46 49 51 53 55 56 57 58 58 58 58 57 57 57 56 54 53 53 53 52 51 50 48 47 46 45 43 42 41 42 43 43
21 19 19 19 20 21 21 21 23 26 28 31 33 36 38 41 44 47 50 52 54 56 56 57 57 57 57 57 57 56 55 55 54 52 52 52 51 50 49 48 48 47 45 43 43 42 43 43 44
19 19 18 19 19 20 20 19 22 25 27 29 32 35 38 41 44 47 50 52 54 54 55 55 55 55 54 55 55 55 54 53 52 52 51 50 50 49 48 47 47 46 44 43 42 42 43 44 46
19 18 18 18 18 19 19 19 22 24 26 29 31 34 37 40 43 46 48 50 51 51 51 51 51 51 51 51 52 53 52 52 51 50 49 49 48 47 46 45 45 43 42 42 41 42 43 45 46
Wind_Direction
225 226 227 227 228 228 226 226 229 230 228 229 231 234 235 238 242 246 250 253 254 255 256 257 260 263 265 267 268 269 270 269 268 266 265 265 265 266 268 270 271 270 269 267 266 265 266 268 269
227 228 229 229 229 228 226 228 230 231 229 227 230 234 235 236 238 239 245 250 255 257 257 257 259 262 264 266 269 271 273 273 272 270 268 267 266 266 266 267 267 267 265 264 263 263 264 266 267
229 230 231 231 230 229 228 232 233 233 231 228 230 234 237 237 238 240 244 250 253 255 256 257 259 261 264 266 269 272 275 276 276 275 273 271 269 268 267 268 267 267 265 263 261 261 262 264 265
231 232 233 233 231 228 229 234 236 235 233 232 233 238 241 241 241 241 243 246 249 252 254 256 258 261 264 267 270 273 275 277 279 279 278 276 274 272 270 269 269 268 267 264 262 261 262 263 265
232 233 234 234 231 228 230 236 238 238 236 234 235 239 242 241 241 243 245 247 250 252 254 256 258 261 265 268 271 274 276 278 279 280 281 281 279 276 274 272 271 270 269 268 266 264 264 266 267
233 234 236 235 230 227 228 234 238 237 235 234 234 238 240 241 241 243 246 248 250 253 255 257 259 262 265 268 271 274 277 279 280 282 282 283 281 279 276 274 273 272 272 271 270 268 268 268 268
233 234 235 232 225 222 222 231 236 236 233 231 232 236 238 240 240 242 244 247 250 253 255 257 259 261 264 267 270 274 277 278 280 282 283 283 282 280 278 276 274 273 272 272 271 270 269 268 268
231 232 232 228 223 218 220 229 236 237 235 232 230 235 238 239 239 239 242 246 250 253 255 256 259 261 264 266 269 272 274 277 279 281 283 283 282 282 280 278 276 274 273 272 271 270 268 267 267
229 231 229 225 221 216 221 228 235 238 237 237 235 236 238 239 239 238 239 242 246 249 252 254 257 260 263 266 268 270 272 275 277 279 280 281 282 281 281 280 278 276 274 273 272 271 269 268 267
227 229 227 222 220 216 222 228 234 238 239 240 241 241 242 240 239 239 239 240 243 247 250 253 256 259 263 265 267 269 271 274 276 278 279 280 281 281 281 280 280 278 277 275 274 273 270 269 267
226 228 225 222 221 220 222 229 234 237 239 240 242 244 245 244 241 241 242 242 244 247 251 255 258 260 262 265 267 269 271 273 275 277 278 279 279 280 281 281 281 280 279 278 277 276 274 272 270
226 226 225 223 224 223 223 228 234 238 241 242 243 245 246 246 246 245 245 244 244 247 250 253 257 260 262 264 266 269 271 272 274 276 278 278 278 278 279 280 281 281 281 281 281 280 279 277 274
226 227 227 226 228 229 228 230 235 240 243 243 242 245 246 245 243 243 244 244 245 245 248 252 255 258 261 263 266 268 271 272 274 275 276 277 277 277 277 278 280 281 280 280 281 282 282 281 279
227 228 229 229 230 233 233 233 235 239 243 242 240 241 245 246 245 242 242 245 247 248 248 249 251 254 258 261 264 267 269 271 273 274 275 275 276 276 276 277 278 279 279 280 280 281 282 282 282
228 230 231 232 233 235 236 234 234 237 240 241 240 240 243 245 244 243 241 243 246 249 250 250 250 252 255 259 262 265 268 270 271 272 274 275 275 275 275 275 276 277 279 279 279 280 281 282 282
228 230 232 233 234 235 237 233 234 236 238 240 241 241 243 244 243 242 241 242 245 247 249 251 251 252 255 258 261 263 265 267 269 270 272 273 274 275 274 274 275 276 277 278 279 279 281 282 283
227 230 231 233 234 234 236 234 233 236 237 239 241 241 242 243 243 242 241 242 244 247 249 251 252 253 254 257 259 262 264 266 267 269 270 270 271 272 273 273 274 275 276 277 278 280 281 283 284
228 231 232 233 234 235 235 236 233 236 238 239 240 241 242 243 243 242 241 241 244 246 249 251 253 254 255 257 260 262 265 265 265 266 266 267 268 269 271 272 273 275 276 277 278 280 281 283 285
228 230 232 233 233 235 236 237 235 236 238 239 240 241 242 243 243 244 244 245 246 248 250 252 254 255 257 258 261 263 263 263 262 263 264 266 267 269 270 271 272 274 276 278 279 281 282 284 285
228 230 232 233 233 235 236 237 237 236 238 240 241 242 243 243 244 246 247 248 249 251 252 254 255 257 258 259 260 261 261 262 263 263 265 266 267 268 268 270 271 272 274 276 279 281 282 284 285
228 230 231 234 235 236 237 237 239 239 240 241 243 243 244 245 246 247 249 251 252 254 255 256 257 258 259 260 260 260 262 263 264 264 264 264 264 264 266 268 270 271 273 275 278 280 282 284 285
226 228 231 233 235 237 238 238 237 240 241 243 245 246 247 248 249 250 253 254 256 257 258 258 259 259 259 260 260 261 262 263 263 262 261 261 261 262 264 266 268 270 272 274 277 280 282 284 285
224 225 227 230 233 237 239 241 232 239 241 244 246 249 251 252 254 256 258 259 260 261 261 261 261 260 260 260 260 260 260 261 261 261 260 260 261 261 262 264 266 268 270 273 277 280 282 284 285
216 218 222 226 231 234 236 243 240 240 243 246 249 252 255 257 258 260 261 262 263 263 263 262 261 261 260 260 259 259 259 259 259 259 258 258 258 259 260 261 263 266 269 272 275 279 281 283 285
208 211 216 222 227 232 235 243 250 250 251 253 255 257 259 260 262 263 264 265 265 264 263 262 261 260 259 258 257 257 257 257 256 255 256 256 256 257 258 259 262 265 268 271 274 277 280 283 285
204 209 216 222 227 233 238 245 254 259 261 262 264 265 266 267 268 268 268 267 267 265 264 262 260 259 258 257 256 255 255 254 254 252 253 253 254 254 255 257 260 264 267 269 272 276 279 281 284
203 210 217 227 233 238 244 251 258 265 268 270 271 272 273 274 274 273 272 270 268 267 265 264 262 259 257 256 254 254 253 253 252 250 249 250 251 252 253 255 257 261 265 268 272 275 278 281 283
208 214 222 232 241 246 251 260 268 271 275 277 279 279 279 279 279 278 276 274 272 270 268 265 262 259 256 253 251 250 249 249 249 248 247 247 248 249 251 253 255 259 263 267 270 273 277 280 284
214 221 231 241 250 258 263 272 274 278 280 282 283 284 285 285 285 285 283 280 277 273 270 266 262 258 254 251 248 246 245 245 245 245 244 244 245 246 249 251 254 258 262 266 270 273 278 282 285
221 230 239 249 257 265 273 280 281 283 285 288 289 290 292 293 292 291 289 286 282 278 273 268 262 257 252 248 244 242 241 240 241 241 241 241 242 244 247 250 253 257 261 266 270 274 278 282 285
Height
5817 5820 5824 5828 5832 5836 5840 5843 5843 5844 5847 5851 5853 5853 5853 5854 5858 5863 5862 5860 5862 5863 5864 5865 5865 5866 5866 5866 5866 5867 5867 5867 5868 5868 5868 5868 5869 5869 5869 5869 5869 5869 5869 5869 5868 5868 5868 5867 5867
5811 5815 5819 5822 5826 5831 5836 5837 5837 5839 5843 5847 5848 5848 5848 5850 5854 5857 5857 5857 5859 5860 5861 5862 5862 5863 5863 5863 5863 5864 5864 5864 5865 5865 5865 5865 5865 5865 5865 5866 5866 5866 5865 5865 5865 5865 5864 5864 5864
5805 5809 5813 5816 5821 5828 5831 5830 5831 5834 5839 5842 5843 5842 5843 5847 5851 5853 5853 5854 5856 5857 5858 5859 5859 5859 5859 5860 5860 5861 5861 5861 5861 5861 5861 5861 5861 5861 5861 5862 5862 5862 5862 5861 5861 5861 5861 5860 5860
5799 5803 5807 5811 5818 5824 5824 5823 5825 5829 5834 5837 5838 5838 5839 5844 5847 5849 5850 5851 5852 5853 5854 5855 5856 5856 5856 5857 5857 5858 5858 5858 5858 5858 5858 5858 5857 5857 5857 5858 5858 5858 5857 5857 5857 5857 5857 5856 5856
5792 5796 5800 5805 5813 5818 5818 5817 5819 5824 5829 5832 5834 5833 5835 5839 5842 5844 5845 5847 5848 5849 5850 5851 5852 5853 5853 5854 5854 5854 5855 5855 5855 5854 5854 5854 5854 5854 5854 5853 5853 5853 5853 5853 5853 5853 5852 5852 5852
5786 5790 5795 5801 5808 5811 5812 5811 5813 5818 5822 5826 5828 5828 5830 5834 5838 5840 5841 5842 5843 5845 5846 5847 5848 5849 5850 5850 5851 5851 5851 5851 5851 5851 5850 5850 5850 5850 5849 5849 5849 5849 5849 5849 5848 5848 5848 5848 5847
5779 5783 5789 5796 5801 5804 5806 5805 5807 5811 5816 5820 5822 5823 5825 5830 5833 5835 5836 5838 5839 5840 5842 5843 5844 5845 5845 5846 5847 5847 5847 5847 5847 5847 5847 5846 5846 5845 5845 5845 5845 5844 5844 5844 5844 5844 5843 5843 5843
5771 5776 5781 5788 5794 5799 5801 5800 5802 5806 5810 5814 5816 5818 5821 5825 5828 5830 5832 5833 5834 5835 5836 5838 5839 5840 5841 5841 5842 5843 5843 5843 5843 5843 5843 5842 5842 5841 5841 5841 5840 5840 5840 5839 5839 5839 5839 5839 5839
5763 5770 5775 5783 5789 5793 5794 5794 5796 5800 5804 5807 5811 5814 5817 5819 5821 5824 5827 5828 5829 5830 5831 5832 5834 5835 5836 5836 5837 5838 5838 5838 5839 5839 5838 5838 5838 5837 5837 5836 5836 5836 5835 5835 5835 5834 5834 5834 5834
5756 5762 5771 5778 5782 5786 5787 5789 5791 5794 5798 5802 5806 5809 5811 5814 5816 5818 5820 5823 5824 5825 5826 5827 5829 5830 5831 5831 5832 5833 5833 5834 5834 5834 5834 5834 5833 5833 5833 5832 5832 5831 5831 5831 5830 5830 5829 5829 5829
5749 5756 5764 5770 5774 5778 5780 5783 5785 5788 5792 5797 5800 5803 5805 5808 5811 5813 5815 5817 5819 5820 5821 5822 5823 5825 5826 5826 5827 5827 5828 5829 5829 5829 5829 5829 5829 5829 5829 5828 5828 5827 5827 5826 5825 5825 5824 5824 5823
5743 5749 5756 5762 5765 5769 5773 5776 5779 5782 5787 5792 5795 5797 5799 5803 5806 5808 5809 5811 5813 5815 5816 5817 5818 5819 5820 5821 5821 5822 5823 5823 5823 5824 5824 5824 5824 5824 5824 5823 5823 5822 5822 5821 5821 5820 5819 5818 5817
5736 5742 5748 5754 5758 5762 5767 5771 5773 5777 5781 5785 5788 5789 5792 5795 5799 5801 5803 5804 5806 5809 5810 5811 5812 5813 5814 5815 5816 5816 5817 5817 5818 5818 5818 5819 5818 5818 5818 5818 5818 5817 5817 5816 5815 5814 5813 5813 5812
5728 5734 5740 5746 5751 5755 5761 5766 5769 5772 5775 5778 5781 5783 5785 5788 5792 5794 5797 5798 5799 5801 5804 5805 5806 5807 5808 5809 5810 5810 5811 5811 5812 5812 5812 5813 5813 5813 5813 5812 5812 5811 5811 5810 5809 5808 5807 5806 5805
5721 5727 5733 5739 5744 5748 5753 5758 5763 5766 5767 5769 5773 5777 5779 5782 5785 5788 5790 5792 5793 5794 5796 5797 5799 5801 5802 5803 5803 5804 5804 5805 5805 5805 5806 5806 5806 5807 5807 5806 5806 5805 5805 5804 5803 5802 5801 5800 5799
5713 5719 5726 5732 5736 5740 5745 5751 5756 5757 5759 5762 5766 5770 5772 5775 5778 5781 5784 5786 5787 5788 5789 5790 5792 5794 5795 5796 5797 5797 5798 5798 5799 5799 5799 5800 5800 5800 5800 5800 5799 5799 5798 5798 5797 5795 5794 5793 5792
5706 5712 5718 5724 5728 5732 5737 5743 5748 5749 5753 5756 5760 5763 5766 5769 5772 5774 5777 5778 5780 5781 5782 5783 5784 5786 5788 5789 5789 5790 5791 5791 5792 5792 5792 5793 5793 5793 5793 5793 5792 5792 5791 5791 5790 5789 5787 5786 5784
5700 5706 5711 5716 5720 5725 5729 5735 5741 5743 5746 5750 5753 5756 5759 5761 5764 5766 5768 5770 5772 5773 5774 5775 5776 5778 5779 5780 5781 5782 5783 5784 5784 5785 5785 5785 5785 5785 5785 5785 5785 5785 5784 5783 5782 5781 5780 5778 5777
5692 5698 5703 5709 5713 5718 5723 5727 5733 5736 5739 5742 5745 5748 5751 5753 5755 5757 5759 5761 5763 5765 5766 5767 5769 5770 5771 5772 5773 5773 5774 5775 5775 5776 5776 5777 5777 5777 5777 5777 5777 5777 5776 5776 5775 5774 5772 5771 5769
5686 5691 5697 5702 5707 5711 5716 5720 5725 5729 5732 5734 5737 5740 5743 5745 5747 5749 5750 5752 5754 5756 5757 5758 5760 5760 5761 5763 5764 5764 5765 5765 5766 5767 5768 5769 5769 5769 5769 5769 5769 5769 5768 5768 5767 5766 5764 5763 5761
5680 5686 5691 5696 5700 5704 5709 5715 5719 5722 5724 5727 5730 5732 5734 5737 5739 5740 5741 5743 5744 5746 5747 5748 5749 5750 5752 5753 5754 5754 5754 5755 5757 5758 5760 5760 5760 5759 5760 5760 5760 5760 5760 5760 5759 5758 5756 5755 5753
5675 5680 5685 5690 5694 5698 5703 5708 5714 5714 5717 5719 5722 5724 5726 5728 5729 5731 5732 5733 5734 5735 5736 5737 5738 5739 5740 5741 5742 5743 5744 5746 5748 5748 5749 5749 5749 5750 5750 5751 5752 5752 5751 5751 5750 5749 5748 5746 5745
5670 5675 5680 5684 5689 5693 5697 5701 5708 5708 5710 5712 5714 5716 5717 5719 5720 5721 5721 5722 5723 5723 5724 5724 5725 5726 5727 5728 5730 5732 5733 5735 5736 5737 5738 5739 5739 5740 5741 5742 5742 5742 5742 5742 5741 5740 5739 5738 5736
5667 5672 5676 5680 5684 5689 5693 5695 5700 5702 5703 5705 5707 5708 5709 5709 5710 5710 5710 5710 5710 5710 5710 5710 5710 5712 5712 5714 5716 5718 5720 5722 5723 5725 5726 5727 5728 5729 5731 5732 5733 5733 5733 5733 5732 5731 5730 5729 5727
5663 5668 5673 5676 5680 5685 5688 5690 5692 5694 5696 5697 5698 5699 5699 5699 5699 5699 5698 5697 5696 5695 5695 5694 5695 5696 5696 5698 5700 5703 5705 5708 5710 5712 5713 5715 5717 5719 5720 5721 5723 5723 5724 5724 5723 5722 5721 5719 5717
5660 5665 5670 5674 5677 5680 5683 5684 5686 5687 5687 5688 5688 5688 5688 5688 5687 5686 5684 5683 5681 5679 5678 5678 5678 5679 5680 5682 5684 5687 5689 5692 5695 5698 5701 5703 5705 5708 5710 5711 5713 5714 5714 5714 5714 5713 5711 5710 5708
5657 5661 5666 5669 5672 5675 5677 5679 5680 5679 5679 5679 5679 5678 5677 5676 5674 5672 5669 5667 5665 5663 5661 5660 5660 5662 5663 5665 5668 5671 5674 5677 5680 5684 5687 5690 5693 5696 5698 5701 5702 5704 5704 5704 5704 5703 5702 5700 5698
5655 5658 5662 5665 5667 5669 5672 5673 5673 5671 5670 5670 5669 5667 5666 5663 5660 5657 5654 5650 5647 5645 5643 5641 5641 5643 5645 5648 5651 5655 5659 5662 5666 5669 5674 5678 5681 5684 5687 5690 5692 5694 5695 5695 5694 5693 5692 5690 5688
5652 5656 5658 5660 5662 5664 5665 5669 5666 5664 5663 5661 5660 5657 5654 5651 5646 5642 5637 5632 5628 5625 5623 5621 5621 5622 5626 5629 5634 5639 5643 5647 5651 5656 5661 5666 5670 5674 5677 5680 5682 5684 5685 5685 5684 5683 5682 5680 5678
5648 5651 5654 5656 5657 5658 5659 5663 5658 5656 5654 5652 5650 5647 5643 5638 5633 5626 5620 5614 5609 5605 5602 5600 5600 5602 5606 5611 5616 5622 5628 5633 5638 5643 5649 5654 5659 5663 5667 5670 5673 5675 5676 5676 5675 5674 5672 5670 5667